RAVAN

Last updated on Sun Jun 21 2026 00:03:50 GMT+0000 (Coordinated Universal Time)

1 41849U 16067B 26171.26160767 .00045505 00000+0 67877-3 0 9994 2 41849 97.9878 61.1885 0003898 22.2879 337.8542 15.54942003528171
UTC large
Height (km)
Speed (km/s)
/
Latitude / Longitude
Inclination (degrees)
Orbital Period (minutes)
Azimuth
Elevation
Range (km)
Doppler Factor

Next 0 passes for location: London (51.5072 / 0.1276)

No passes found over London.
RAVAN